Regional Weather Roundup
Issued by NWS

Home | Current Version | Previous Version | Graphics & Text | Print | Product List | Glossary On
Versions: 1 2 3 4 5 6 7 8 9 10 11 12 13 14 15 16 17 18 19 20 21 22 23 24 25 26 27 28 29 30 31 32 33 34 35 36 37 38 39 40 41 42 43 44 45 46 47 48 49
000
ASUS45 KBOI 010310
RWRID
WEATHER ROUNDUP FOR IDAHO
NATIONAL WEATHER SERVICE BOISE ID
900 PM MDT TUE SEP 30 2014

NOTE: "FAIR" INDICATES FEW OR NO CLOUDS BELOW 12000 FEET
WITH NO SIGNIFICANT WEATHER AND/OR OBSTRUCTIONS TO VISIBILITY

IDZ012-014-010400-
SOUTHWEST IDAHO


CITY           SKY/WX    TMP DP  RH WIND       PRES   REMARKS
BOISE          PTCLDY    55  37  50 N8        29.99R
CALDWELL       MOCLDY    55  34  44 NW7       30.02R
MOUNTAIN HOME  PTCLDY    52  37  56 W13       29.99R
$$

IDZ016-017-010400-
SOUTHCENTRAL IDAHO


CITY           SKY/WX    TMP DP  RH WIND       PRES   REMARKS
BURLEY         PTCLDY    47  35  63 S10       29.97R
JEROME         CLEAR     48  34  58 SW14      29.97S
TWIN FALLS     CLEAR     50  35  56 SW16      29.99R
$$

IDZ019>023-010400-
SOUTHEAST IDAHO


CITY           SKY/WX    TMP DP  RH WIND       PRES   REMARKS
IDAHO FALLS    CLOUDY    49  36  61 SW23G29   29.92R
POCATELLO      CLEAR     47  37  68 S13G23    29.97R
REXBURG        CLOUDY    48  39  71 NW9       29.92R
$$

IDZ006-010-011-018-031-032-010400-
CENTRAL IDAHO MOUNTAINS


CITY           SKY/WX    TMP DP  RH WIND       PRES   REMARKS
MCCALL         PTCLDY    42  33  70 N7        30.03R
HAILEY         PTCLDY    52  28  40 NW9       29.92R
STANLEY          N/A     37  33  85 N6        30.03R WCI  32
SALMON         CLOUDY    48  34  57 SW6       29.99R
CHALLIS        CLOUDY    44  37  76 NW8       29.97R
$$

IDZ002-004-006-007-026-010400-
NORTHERN IDAHO


CITY           SKY/WX    TMP DP  RH WIND       PRES   REMARKS
LEWISTON       PTCLDY    61  38  42 W7        29.98R
LOWELL           N/A     51  49  92 N3        30.04R
COEUR D`ALENE  PTCLDY    48  45  87 S7        29.95R
MULLAN PASS    CLOUDY    32  32 100 NW6       29.99R WCI  26
$$



USA.gov is the U.S. government's official web portal to all federal, state and local government web resources and services.